sat.trackr.live / text

‹ back to catalog

STARLINK-36139

NORAD 66966 · 2025-288H

PAYLOAD ACTIVE UNKNOWN

§ Identity

Operator
Country
US
Launch date
2025-12-08
Launch site
AFETR
Launch vehicle
Mass (kg)
RCS (m²)

Purposes: comms

External: N2YO · Heavens-Above · Gunter

§ Orbital elements

Epoch: 2026-09-20T22:59:51.783936Z

Period
94.27 min
Inclination
43.0010°
Eccentricity
0.0001957
Mean motion
15.27597484 rev/d
Perigee alt
481.7 km
Apogee alt
484.3 km
Semi-major
6,861.1 km
B*
4.1522e-4
RAAN
0.4680°
Arg perigee
279.4672°
Mean anomaly
80.5958°
Rev number
4,515

§ Raw data

STARLINK-361391 66966U 25288H   26263.95823824  .00011187  00000+0  41522-3 0  99922 66966  43.0010   0.4680 0001957 279.4672  80.5958 15.27597484 45152

JSON: /api/v1/satellites/66966 · /tle

For live sub-satellite position, see the globe view (requires WebGL).

§ Visibility from observer

Set your observer location to see the next 7 days of passes ≥ 10°. The values pass through the URL so the page stays shareable.

No JS? Fill the form by hand. The geolocation button needs JavaScript.